Weather History for Greensboro, GA

Change the Weather History Date:

Saturday, October 13, 2012

  Actual Average (KDBN) Record (KDBN)
Temperature  
Mean Temperature 68 °F -  
Max Temperature 77 °F 80 °F 90 °F (1954)
Min Temperature 59 °F 51 °F 38 °F (1976)
Cooling Degree Days 3    
Growing Degree Days 18 (Base 50)    
Moisture  
Dew Point 53 °F    
Average Humidity 67    
Maximum Humidity 88    
Minimum Humidity 41    
Precipitation  
Precipitation 0.00 in - - ()
Sea Level Pressure  
Sea Level Pressure 30.28 in    
Wind  
Wind Speed 1 mph (ENE)    
Max Wind Speed 6 mph    
Max Gust Speed -    
Visibility 10 miles    
Events      
Averages and records for this station are not official NWS values.
T = Trace of Precipitation, MM = Missing Value Source: NWS Daily Summary

Daily Weather History Graph

Daily Weather History Graph

Search for Another Location

Airport:

Trip Planner

Search our weather history database for the weather conditions in past years. The results will help you decide how hot, cold, wet, or windy it might be!

Date:

Astronomy

Oct. 13, 2012 Rise Set
Actual Time 7:36 AM EDT 7:00 PM EDT
Civil Twilight 7:11 AM EDT 7:25 PM EDT
Nautical Twilight 6:42 AM EDT 7:54 PM EDT
Astronomical Twilight 6:13 AM EDT 8:23 PM EDT
Moon 5:29 AM EDT (10/13) 5:40 PM EDT (10/13)
Length of Visible Light 12h 14m
Length of Day
11h 24m
Waning Crescent, 5% of the Moon is Illuminated
Oct 13
Waning Crescent
Oct 15
New
Oct 21
First Quarter
Oct 29
Full
Nov 6
Last Quarter

Hourly Weather History & Observations

Time (EDT) Temp. Dew Point Humidity Pressure Visibility Wind Dir Wind Speed Gust Speed Precip Events Conditions
12:15 AM 62.6 °F 59.0 °F 88% 30.24 in 10.0 mi Calm Calm - N/A   Clear
12:35 AM 62.6 °F 59.0 °F 88% 30.24 in 10.0 mi Calm Calm - N/A   Scattered Clouds
12:55 AM 62.6 °F 59.0 °F 88% 30.24 in 10.0 mi Calm Calm - N/A   Overcast
2:35 AM 62.6 °F 55.4 °F 77% 30.24 in 10.0 mi Calm Calm - N/A   Clear
2:55 AM 60.8 °F 55.4 °F 82% 30.24 in 10.0 mi Calm Calm - N/A   Clear
3:15 AM 60.8 °F 55.4 °F 82% 30.25 in 10.0 mi Calm Calm - N/A   Clear
3:35 AM 60.8 °F 55.4 °F 82% 30.25 in 10.0 mi Calm Calm - N/A   Clear
3:55 AM 59.0 °F 55.4 °F 88% 30.24 in 10.0 mi Calm Calm - N/A   Clear
4:15 AM 59.0 °F 55.4 °F 88% 30.25 in 10.0 mi Calm Calm - N/A   Clear
4:35 AM 59.0 °F 55.4 °F 88% 30.26 in 10.0 mi Calm Calm - N/A   Mostly Cloudy
4:55 AM 59.0 °F 55.4 °F 88% 30.26 in 10.0 mi Calm Calm - N/A   Overcast
5:15 AM 59.0 °F 55.4 °F 88% 30.27 in 10.0 mi Calm Calm - N/A   Overcast
5:35 AM 59.0 °F 55.4 °F 88% 30.27 in 10.0 mi Calm Calm - N/A   Overcast
6:35 AM 59.0 °F 53.6 °F 82% 30.30 in 10.0 mi Calm Calm - N/A   Overcast
6:55 AM 59.0 °F 53.6 °F 82% 30.30 in 10.0 mi Calm Calm - N/A   Overcast
7:15 AM 59.0 °F 53.6 °F 82% 30.31 in 10.0 mi Calm Calm - N/A   Overcast
7:35 AM 59.0 °F 53.6 °F 82% 30.31 in 10.0 mi Calm Calm - N/A   Overcast
7:55 AM 59.0 °F 53.6 °F 82% 30.32 in 10.0 mi Calm Calm - N/A   Overcast
8:15 AM 59.0 °F 53.6 °F 82% 30.33 in 10.0 mi Calm Calm - N/A   Overcast
8:35 AM 59.0 °F 53.6 °F 82% 30.34 in 10.0 mi Calm Calm - N/A   Overcast
8:55 AM 60.8 °F 55.4 °F 82% 30.34 in 10.0 mi Calm Calm - N/A   Overcast
9:15 AM 60.8 °F 53.6 °F 77% 30.35 in 10.0 mi Calm Calm - N/A   Scattered Clouds
9:55 AM 62.6 °F 51.8 °F 68% 30.35 in 10.0 mi NE 3.5 mph - N/A   Clear
10:35 AM 64.4 °F 51.8 °F 64% 30.36 in 10.0 mi NE 5.8 mph - N/A   Clear
10:55 AM 66.2 °F 51.8 °F 60% 30.36 in 10.0 mi ENE 4.6 mph - N/A   Clear
11:15 AM 68.0 °F 51.8 °F 56% 30.36 in 10.0 mi ENE 3.5 mph - N/A   Clear
11:35 AM 69.8 °F 51.8 °F 53% 30.36 in 10.0 mi ENE 3.5 mph - N/A   Clear
12:15 PM 69.8 °F 51.8 °F 53% 30.35 in 10.0 mi ENE 3.5 mph - N/A   Clear
12:35 PM 69.8 °F 50.0 °F 49% 30.35 in 10.0 mi East 3.5 mph - N/A   Clear
12:55 PM 71.6 °F 51.8 °F 50% 30.34 in 10.0 mi ENE 4.6 mph - N/A   Clear
1:35 PM 71.6 °F 50.0 °F 46% 30.32 in 10.0 mi East 4.6 mph - N/A   Clear
1:55 PM 71.6 °F 50.0 °F 46% 30.30 in 10.0 mi ENE 5.8 mph - N/A   Clear
2:15 PM 73.4 °F 50.0 °F 44% 30.30 in 10.0 mi East 3.5 mph - N/A   Clear
2:35 PM 73.4 °F 50.0 °F 44% 30.28 in 10.0 mi East 3.5 mph - N/A   Clear
2:55 PM 73.4 °F 50.0 °F 44% 30.28 in 10.0 mi East 3.5 mph - N/A   Clear
3:15 PM 75.2 °F 51.8 °F 44% 30.27 in 10.0 mi ENE 4.6 mph - N/A   Clear
3:35 PM 77.0 °F 51.8 °F 41% 30.27 in 10.0 mi Calm Calm - N/A   Clear
3:55 PM 77.0 °F 51.8 °F 41% 30.26 in 10.0 mi NNE 4.6 mph - N/A   Clear
4:15 PM 77.0 °F 51.8 °F 41% 30.26 in 10.0 mi East 4.6 mph - N/A   Scattered Clouds
4:35 PM 73.4 °F 51.8 °F 47% 30.26 in 10.0 mi ENE 3.5 mph - N/A   Scattered Clouds
4:55 PM 73.4 °F 51.8 °F 47% 30.25 in 10.0 mi Calm Calm - N/A   Clear
5:15 PM 73.4 °F 53.6 °F 50% 30.25 in 10.0 mi NE 3.5 mph - N/A   Scattered Clouds
5:35 PM 73.4 °F 53.6 °F 50% 30.25 in 10.0 mi ENE 3.5 mph - N/A   Scattered Clouds
5:55 PM 73.4 °F 53.6 °F 50% 30.25 in 10.0 mi Calm Calm - N/A   Clear
6:15 PM 71.6 °F 53.6 °F 53% 30.25 in 10.0 mi Calm Calm - N/A   Clear
6:35 PM 69.8 °F 53.6 °F 56% 30.25 in 10.0 mi Calm Calm - N/A   Clear
6:55 PM 68.0 °F 53.6 °F 60% 30.25 in 10.0 mi Calm Calm - N/A   Clear
7:15 PM 68.0 °F 53.6 °F 60% 30.25 in 10.0 mi Calm Calm - N/A   Clear
7:35 PM 66.2 °F 53.6 °F 64% 30.25 in 10.0 mi Calm Calm - N/A   Clear
8:35 PM 64.4 °F 53.6 °F 68% 30.26 in 10.0 mi Calm Calm - N/A   Clear
8:55 PM 64.4 °F 53.6 °F 68% 30.26 in 10.0 mi Calm Calm - N/A   Clear
9:35 PM 62.6 °F 53.6 °F 72% 30.27 in 10.0 mi Calm Calm - N/A   Clear
10:15 PM 60.8 °F 53.6 °F 77% 30.27 in 10.0 mi Calm Calm - N/A   Clear
10:35 PM 60.8 °F 53.6 °F 77% 30.27 in 10.0 mi Calm Calm - N/A   Clear
10:55 PM 60.8 °F 51.8 °F 72% 30.27 in 10.0 mi Calm Calm - N/A   Clear
11:15 PM 60.8 °F 51.8 °F 72% 30.27 in 10.0 mi Calm Calm - N/A   Clear
11:55 PM 60.8 °F 53.6 °F 77% 30.26 in 10.0 mi Calm Calm - N/A   Clear